Home > Weather > Meissen > Past weeks

Flag for Germany Past Weather in Meissen, Saxony, Germany — Yesterday and Last 2 Weeks

Now
61 °F

Fog.


Feels Like: 61 °F
Forecast: 57 / 72 °F
Wind: 2 mph from North

Location: Dresden-Klotzsche

Current Time: May 31, 2016 at 9:57:57 PM

Latest Report: May 31, 2016 at 9:20 PM


Visibility: N/A

Pressure: 29.86 "Hg

Humidity: 94%

Dew Point: 59 °F

Location of MeissenLocation

Past Weather in Meissen — Graph

°F

Meissen Temperature Yesterday

Maximum temperature yesterday: 77 °F (at 3:50 PM)
Minimum temperature yesterday: 61 °F (at 11:50 PM)
Average temperature yesterday: 69 °F

High & Low Weather Summary for the Past Weeks

 TemperatureHumidityPressure
High82 °F (May 22, 3:50 PM)100% (May 23, 8:50 PM)30.09 "Hg (May 23, 8:50 PM)
Low43 °F (May 17, 5:20 AM)23% (May 22, 3:50 PM)29.59 "Hg (May 30, 4:50 AM)
Average61 °F69%29.90 "Hg
* Reported May 16 8:20 PM — May 31 8:20 PM, Meissen, Weather by CustomWeather, © 2016

Note: Actual official high and low records may vary slightly from our data, if they occured in-between our weather recording intervals... More about our weather records

Advertising

Meissen Weather History for the Previous 24 Hours

Scroll right to see more
 ConditionsComfort  
Time TempWeatherWind HumidityBarometerVisibility
8:20 PM
Tue, May 31
63 °FPartly sunny.5 mph94%29.86 "HgN/A
7:50 PM63 °FBroken clouds.8 mph94%29.83 "HgN/A
7:20 PM63 °FBroken clouds.5 mph94%29.83 "HgN/A
6:50 PM63 °FBroken clouds.2 mph88%29.83 "HgN/A
6:20 PM61 °FSprinkles. Broken clouds.2 mph94%29.83 "HgN/A
5:50 PM61 °FSprinkles. Broken clouds.3 mph94%29.83 "HgN/A
5:20 PM61 °FSprinkles. Broken clouds.8 mph94%29.83 "HgN/A
4:50 PM59 °FThundershowers. Partly sunny.8 mph94%29.83 "HgN/A
4:20 PM61 °FThunderstorms. Broken clouds.8 mph94%29.83 "HgN/A
3:50 PM64 °FMild.6 mph83%29.83 "HgN/A
3:20 PM72 °FThundershowers. Partly sunny.10 mph61%29.80 "HgN/A
2:50 PM73 °FThundershowers. Partly sunny.12 mph61%29.80 "HgN/A
2:20 PM70 °FScattered clouds.9 mph73%29.80 "HgN/A
1:50 PM70 °FSprinkles. Partly sunny.12 mph69%29.83 "HgN/A
1:20 PM73 °FScattered clouds.7 mph61%29.83 "HgN/A
12:50 PM73 °FScattered clouds.3 mph61%29.83 "HgN/A
12:20 PM72 °FPartly sunny.6 mph57%29.83 "HgN/A
11:50 AM70 °FPartly sunny.6 mph64%29.83 "HgN/A
11:20 AM70 °FScattered clouds.5 mph64%29.83 "HgN/A
10:50 AM70 °FScattered clouds.5 mph64%29.83 "HgN/A
10:20 AM70 °FScattered clouds.6 mph64%29.83 "HgN/A
9:50 AM68 °FScattered clouds.6 mph69%29.83 "HgN/A
9:20 AM68 °FPassing clouds.5 mph69%29.83 "HgN/A
8:50 AM66 °FPassing clouds.6 mph68%29.83 "HgN/A
8:20 AM64 °FPassing clouds.6 mph73%29.83 "HgN/A
7:50 AM64 °FPassing clouds.7 mph73%29.83 "HgN/A
7:20 AM63 °FPassing clouds.6 mph77%29.83 "HgN/A
6:50 AM61 °FSunny.2 mph83%29.80 "Hg10 mi
6:20 AM59 °FSunny.5 mph88%29.80 "Hg10 mi
5:50 AM59 °FClear.2 mph88%29.80 "Hg10 mi
5:20 AM59 °FClear.5 mph82%29.80 "Hg10 mi
4:50 AM57 °FClear.5 mph88%29.80 "Hg10 mi
4:20 AM57 °FClear.2 mph88%29.80 "Hg10 mi
3:50 AM57 °FClear.5 mph88%29.80 "Hg10 mi
3:20 AM59 °FClear.6 mph82%29.80 "Hg10 mi
2:50 AM59 °FClear.5 mph82%29.77 "Hg10 mi
2:20 AM59 °FClear.3 mph82%29.77 "Hg10 mi
1:50 AM59 °FClear.6 mph82%29.77 "Hg10 mi
1:20 AM61 °FClear.5 mph77%29.77 "Hg10 mi
12:50 AM61 °FClear.3 mph77%29.77 "Hg10 mi
12:20 AM63 °FClear.2 mph73%29.77 "Hg10 mi
11:50 PM
Mon, May 30
61 °FClear.7 mph77%29.77 "Hg10 mi
11:20 PM63 °FClear.5 mph73%29.77 "Hg10 mi
10:50 PM63 °FClear.5 mph73%29.74 "Hg10 mi
10:20 PM64 °FClear.6 mph68%29.74 "Hg10 mi
9:50 PM66 °FSunny.7 mph64%29.74 "Hg10 mi
9:20 PM68 °FSunny.7 mph56%29.74 "Hg10 mi
Weather by CustomWeather, © 2016

See weather overviewHow to use our weather pages